DAL313 PHNL-KMSP

Flight info

Callsign DAL313
Flight time N/A
Altitude 37000
Route MKK5 KOLEA CLUTS R465 CINNY OAK SYRAH MVA INSLO Q126 GAROT MTU DDRTH UFFDA TORGY4
Aircraft A333/H-SDE3GHIJ2J3J5M1RVWXY/LB2D1

Departure

Time N/A
Airport Daniel K. Inouye International Airport (PHNL)

Arrival

Time 2026-05-04 11:31
Airport Minneapolis–Saint Paul International Airport / Wold–Chamberlain Field (KMSP)
Time Latitude Longitude Altitude Speed Heading
2026-05-04 11:01 44.47754 -95.63345 32656 ft 521 kts 91°
2026-05-04 11:02 44.47535 -95.58242 31082 ft 526 kts 91°
2026-05-04 11:02 44.47317 -95.53203 30125 ft 514 kts 91°
2026-05-04 11:05 44.52597 -94.89019 21303 ft 432 kts 68°
2026-05-04 11:06 44.53215 -94.86337 20989 ft 428 kts 68°
2026-05-04 11:06 44.54438 -94.81038 20378 ft 423 kts 68°
2026-05-04 11:06 44.55335 -94.77144 19925 ft 421 kts 68°
2026-05-04 11:06 44.56213 -94.73319 19484 ft 417 kts 68°
2026-05-04 11:08 44.62318 -94.46561 16321 ft 396 kts 69°
2026-05-04 11:10 44.68018 -94.21278 13752 ft 379 kts 70°
2026-05-04 11:12 44.73544 -93.96663 11638 ft 372 kts 69°
2026-05-04 11:12 44.74313 -93.93207 11325 ft 369 kts 69°
2026-05-04 11:12 44.74823 -93.90919 11117 ft 371 kts 69°
2026-05-04 11:12 44.75847 -93.86331 10704 ft 359 kts 69°
2026-05-04 11:13 44.76579 -93.83040 10327 ft 342 kts 69°
2026-05-04 11:13 44.77047 -93.80944 10119 ft 334 kts 69°
2026-05-04 11:13 44.77977 -93.76771 9789 ft 331 kts 69°
2026-05-04 11:13 44.78664 -93.73687 9520 ft 329 kts 69°
2026-05-04 11:14 44.79345 -93.70617 9256 ft 327 kts 69°
2026-05-04 11:14 44.80022 -93.67563 9022 ft 323 kts 68°
2026-05-04 11:14 44.80470 -93.65534 9005 ft 322 kts 68°
2026-05-04 11:16 44.84912 -93.44055 8986 ft 329 kts 90°
2026-05-04 11:16 44.84130 -93.39927 9001 ft 329 kts 122°
2026-05-04 11:16 44.82892 -93.37249 9021 ft 326 kts 125°
2026-05-04 11:17 44.82098 -93.35451 9004 ft 326 kts 124°
2026-05-04 11:17 44.80899 -93.32709 8992 ft 327 kts 125°
2026-05-04 11:19 44.72326 -93.12856 7893 ft 305 kts 124°
2026-05-04 11:19 44.71254 -93.10329 7623 ft 296 kts 124°
2026-05-04 11:19 44.70208 -93.07862 7359 ft 289 kts 124°
2026-05-04 11:19 44.69194 -93.05466 7076 ft 278 kts 124°
2026-05-04 11:20 44.68230 -93.03188 6720 ft 269 kts 124°
2026-05-04 11:20 44.67284 -93.00954 6354 ft 263 kts 124°
2026-05-04 11:20 44.66352 -92.98749 5900 ft 261 kts 124°
2026-05-04 11:20 44.65731 -92.97284 5600 ft 259 kts 125°
2026-05-04 11:22 44.71186 -92.86626 3509 ft 199 kts 355°
2026-05-04 11:22 44.72410 -92.87045 3233 ft 169 kts 311°
2026-05-04 11:23 44.73122 -92.88267 3054 ft 163 kts 297°
2026-05-04 11:23 44.73779 -92.89556 2999 ft 161 kts 296°
2026-05-04 11:24 44.77455 -92.97191 2933 ft 152 kts 289°
2026-05-04 11:25 44.77990 -92.98521 2932 ft 159 kts 294°
2026-05-04 11:25 44.78584 -92.99869 2942 ft 165 kts 294°
2026-05-04 11:25 44.79187 -93.01260 2955 ft 166 kts 295°
2026-05-04 11:26 44.80396 -93.04047 2921 ft 165 kts 292°
2026-05-04 11:27 44.83993 -93.12384 2101 ft 136 kts 295°
2026-05-04 11:28 44.84485 -93.13497 1921 ft 133 kts 295°
2026-05-04 11:28 44.84963 -93.14606 1738 ft 134 kts 294°
2026-05-04 11:28 44.85434 -93.15690 1569 ft 133 kts 295°
2026-05-04 11:28 44.85927 -93.16813 1385 ft 136 kts 295°
2026-05-04 11:29 44.86414 -93.17933 1228 ft 137 kts 296°
2026-05-04 11:29 44.86736 -93.18703 1101 ft 139 kts 297°
2026-05-04 11:29 44.87398 -93.20222 857 ft 140 kts 298°
2026-05-04 11:29 44.87876 -93.21330 828 ft 112 kts 302°
2026-05-04 11:31 44.88340 -93.22103 836 ft 14 kts 122°
2026-05-04 11:33 44.88359 -93.21704 831 ft 0 kts 88°